Skip Page Navigation
NASA JPL Caltech
NASA Logo - Jet Propulsion Laboratory + View the NASA Portal
+ Center for Near-Earth Object Studies
JPL Home Earth Solar System Stars & Galaxies Technology
JPL Solar System Dynamics
BODIES ORBITS EPHEMERIDES TOOLS PHYSICAL DATA DISCOVERY FAQ SITE MAP
IMPORTANT: The SSD Announcement email list is now available. Major changes are coming in the near future, including possible hostname and/or URL changes. To be notified of such changes, subscribe to this email list.

Please visit this page for more details.


JPL Small-Body Database Browser
Search: [ help ]  
101753 (1999 FT19)
Classification: Main-belt Asteroid          SPK-ID: 2101753
Ephemeris | Orbit Diagram | Orbital Elements | Mission Design | Physical Parameters | Discovery Circumstances ]

[ show orbit diagram ]
Orbital Elements at Epoch 2459000.5 (2020-May-31.0) TDB
Reference: JPL 15 (heliocentric ecliptic J2000)
 Element Value Uncertainty (1-sigma)   Units 
e .1332453395004896 4.8203e-08  
a 2.588585464024389 1.5927e-08 au
q 2.243668515044427 1.2809e-07 au
i 14.20697488622822 4.5616e-06 deg
node 177.4127731108042 2.3458e-05 deg
peri 293.5911549431057 3.0361e-05 deg
M 90.96239442744499 1.9955e-05 deg
tp 2458616.128151658390
(2019-May-12.62815166)
8.3603e-05 TDB
period 1521.220568939089
4.16
1.404e-05
3.844e-08
d
yr
n .2366520722573891 2.1842e-09 deg/d
Q 2.933502413004351 1.805e-08 au
  Orbit Determination Parameters
   # obs. used (total)      439  
   data-arc span      10494 days (28.73 yr)  
   first obs. used      1991-05-07  
   last obs. used      2020-01-29  
   planetary ephem.      DE431  
   SB-pert. ephem.      SB431-N16  
   condition code      0  
   norm. resid. RMS      .6437  
   source      ORB  
   producer      Otto Matic  
   solution date      2020-Feb-24 01:25:53  

Additional Information
 Earth MOID = 1.29983 au 
 Jupiter MOID = 2.22858 au 
 T_jup = 3.365 
[ show covariance matrix ]

Ephemeris | Orbit Diagram | Orbital Elements | Mission Design | Physical Parameters | Discovery Circumstances ]

Physical Parameter Table
Parameter Symbol Value Units Sigma Reference Notes
absolute magnitude H 15.8   n/a MPO422324  

101753 (1999 FT19)          Discovered 1999-Mar-24 by Santangelo, M. M. M. at Monte Agliale
Reference: 20051019/Numbers.arcLast Updated: 2005-10-26

Alternate Designations
 1999 FT19 = 2001 TC142 
Ephemeris | Orbit Diagram | Orbital Elements | Mission Design | Physical Parameters | Discovery Circumstances ]
ABOUT SSD CREDITS/AWARDS PRIVACY/COPYRIGHT GLOSSARY LINKS
FirstGov 2020-Apr-10 08:53 UT
(server date/time)  
NASA Home Page
Site Manager:   Ryan S. Park
Webmaster  Alan B. Chamberlin